Time,TemperatureF,DewpointF,PressureIn,WindDirection,WindDirectionDegrees,WindSpeedMPH,WindSpeedGustMPH,Humidity,HourlyPrecipIn,Conditions,Clouds,dailyrainin,SoftwareType,DateUTC
2013-03-03 00:02:00,26.0,20.0,29.82,NW,316,3.0,7.0,78,0.00,,,1.28,,2013-03-03 05:02:00,
2013-03-03 00:12:00,26.0,20.0,29.82,NW,316,3.0,7.0,78,0.00,,,1.28,,2013-03-03 05:12:00,
2013-03-03 00:22:00,26.0,20.0,29.82,NW,316,3.0,7.0,78,0.00,,,1.28,,2013-03-03 05:22:00,
2013-03-03 00:32:00,25.0,19.0,29.81,West,275,1.0,5.0,79,0.00,,,1.28,,2013-03-03 05:32:00,
2013-03-03 00:42:00,25.0,19.0,29.81,West,275,1.0,5.0,79,0.00,,,1.28,,2013-03-03 05:42:00,
2013-03-03 00:52:00,25.0,19.0,29.81,West,275,1.0,5.0,79,0.00,,,1.28,,2013-03-03 05:52:00,
2013-03-03 01:02:00,25.0,20.0,29.81,NW,313,0.0,2.0,82,0.00,,,1.28,,2013-03-03 06:02:00,
2013-03-03 01:11:00,25.0,20.0,29.81,NW,313,0.0,2.0,82,0.00,,,1.28,,2013-03-03 06:11:00,
2013-03-03 01:22:00,25.0,20.0,29.81,NW,313,0.0,2.0,82,0.00,,,1.28,,2013-03-03 06:22:00,
2013-03-03 01:32:00,24.0,20.0,29.82,NW,323,1.0,3.0,83,0.00,,,1.28,,2013-03-03 06:32:00,
2013-03-03 01:42:00,24.0,20.0,29.82,NW,323,1.0,3.0,83,0.00,,,1.28,,2013-03-03 06:42:00,
2013-03-03 01:52:00,24.0,20.0,29.82,NW,323,1.0,3.0,83,0.00,,,1.28,,2013-03-03 06:52:00,
2013-03-03 02:01:00,24.0,20.0,29.82,NW,325,0.0,3.0,83,0.00,,,1.28,,2013-03-03 07:01:00,
2013-03-03 02:11:00,24.0,20.0,29.82,NW,325,0.0,3.0,83,0.00,,,1.28,,2013-03-03 07:11:00,
2013-03-03 02:21:00,24.0,20.0,29.82,NW,325,0.0,3.0,83,0.00,,,1.28,,2013-03-03 07:21:00,
2013-03-03 02:32:00,24.0,20.0,29.82,NW,325,0.0,3.0,83,0.00,,,1.28,,2013-03-03 07:32:00,
2013-03-03 03:01:00,23.0,19.0,29.81,WNW,292,0.0,3.0,86,0.00,,,1.28,,2013-03-03 08:01:00,
2013-03-03 03:11:00,23.0,19.0,29.81,WNW,292,0.0,3.0,86,0.00,,,1.28,,2013-03-03 08:11:00,
2013-03-03 03:21:00,23.0,19.0,29.81,WNW,292,0.0,3.0,86,0.00,,,1.28,,2013-03-03 08:21:00,
2013-03-03 03:32:00,23.0,19.0,29.82,NNW,330,1.0,4.0,86,0.00,,,1.28,,2013-03-03 08:32:00,
2013-03-03 03:42:00,23.0,19.0,29.82,NNW,330,1.0,4.0,86,0.00,,,1.28,,2013-03-03 08:42:00,
2013-03-03 03:54:00,23.0,19.0,29.82,NNW,330,1.0,4.0,86,0.00,,,1.28,,2013-03-03 08:54:00,
2013-03-03 04:02:00,23.0,19.0,29.81,North,352,1.0,6.0,84,0.00,,,1.28,,2013-03-03 09:02:00,
2013-03-03 04:11:00,23.0,19.0,29.81,North,352,1.0,6.0,84,0.00,,,1.28,,2013-03-03 09:11:00,
2013-03-03 04:21:00,23.0,19.0,29.81,North,352,1.0,6.0,84,0.00,,,1.28,,2013-03-03 09:21:00,
2013-03-03 04:32:00,22.0,18.0,29.82,WNW,287,0.0,5.0,83,0.00,,,1.28,,2013-03-03 09:32:00,
2013-03-03 04:41:00,22.0,18.0,29.82,WNW,287,0.0,5.0,83,0.00,,,1.28,,2013-03-03 09:41:00,
2013-03-03 04:52:00,22.0,18.0,29.82,WNW,287,0.0,5.0,83,0.00,,,1.28,,2013-03-03 09:52:00,
2013-03-03 05:01:00,22.0,18.0,29.82,NNW,337,1.0,7.0,83,0.00,,,1.28,,2013-03-03 10:01:00,
2013-03-03 05:11:00,22.0,18.0,29.82,NNW,337,1.0,7.0,83,0.00,,,1.28,,2013-03-03 10:11:00,
2013-03-03 05:21:00,22.0,18.0,29.82,NNW,337,1.0,7.0,83,0.00,,,1.28,,2013-03-03 10:21:00,
2013-03-03 05:32:00,22.0,18.0,29.81,NW,323,3.0,8.0,85,0.00,,,1.28,,2013-03-03 10:32:00,
2013-03-03 05:42:00,22.0,18.0,29.81,NW,323,3.0,8.0,85,0.00,,,1.28,,2013-03-03 10:42:00,
2013-03-03 05:52:00,22.0,18.0,29.81,NW,323,3.0,8.0,85,0.00,,,1.28,,2013-03-03 10:52:00,
2013-03-03 06:01:00,22.0,18.0,29.81,WNW,298,1.0,3.0,86,0.00,,,1.28,,2013-03-03 11:01:00,
2013-03-03 06:11:00,22.0,18.0,29.81,WNW,298,1.0,3.0,86,0.00,,,1.28,,2013-03-03 11:11:00,
2013-03-03 06:22:00,22.0,18.0,29.81,WNW,298,1.0,3.0,86,0.00,,,1.28,,2013-03-03 11:22:00,
2013-03-03 06:32:00,21.0,17.0,29.82,North,349,1.0,5.0,86,0.00,,,1.28,,2013-03-03 11:32:00,
2013-03-03 06:42:00,21.0,17.0,29.82,North,349,1.0,5.0,86,0.00,,,1.28,,2013-03-03 11:42:00,
2013-03-03 06:53:00,21.0,17.0,29.82,North,349,1.0,5.0,86,0.00,,,1.28,,2013-03-03 11:53:00,
2013-03-03 07:02:00,21.0,17.0,29.82,West,274,1.0,3.0,86,0.00,,,1.28,,2013-03-03 12:02:00,
2013-03-03 07:11:00,21.0,17.0,29.82,West,274,1.0,3.0,86,0.00,,,1.28,,2013-03-03 12:11:00,
2013-03-03 07:22:00,21.0,17.0,29.82,West,274,1.0,3.0,86,0.00,,,1.28,,2013-03-03 12:22:00,
2013-03-03 07:32:00,21.0,17.0,29.83,WNW,299,1.0,7.0,86,0.00,,,1.28,,2013-03-03 12:32:00,
2013-03-03 07:43:00,21.0,17.0,29.83,WNW,299,1.0,7.0,86,0.00,,,1.28,,2013-03-03 12:43:00,
2013-03-03 07:53:00,21.0,17.0,29.83,WNW,299,1.0,7.0,86,0.00,,,1.28,,2013-03-03 12:53:00,
2013-03-03 08:02:00,22.0,18.0,29.84,WNW,289,1.0,5.0,84,0.00,,,1.28,,2013-03-03 13:02:00,
2013-03-03 08:11:00,22.0,18.0,29.84,WNW,289,1.0,5.0,84,0.00,,,1.28,,2013-03-03 13:11:00,
2013-03-03 08:22:00,22.0,18.0,29.84,WNW,289,1.0,5.0,84,0.00,,,1.28,,2013-03-03 13:22:00,
2013-03-03 08:32:00,23.0,17.0,29.84,WNW,292,1.0,6.0,79,0.00,,,1.28,,2013-03-03 13:32:00,
2013-03-03 08:42:00,23.0,17.0,29.84,WNW,292,1.0,6.0,79,0.00,,,1.28,,2013-03-03 13:42:00,
2013-03-03 08:52:00,23.0,17.0,29.84,WNW,292,1.0,6.0,79,0.00,,,1.28,,2013-03-03 13:52:00,
2013-03-03 09:02:00,23.0,17.0,29.85,West,280,2.0,3.0,77,0.00,,,1.28,,2013-03-03 14:02:00,
2013-03-03 09:11:00,23.0,17.0,29.85,West,280,2.0,3.0,77,0.00,,,1.28,,2013-03-03 14:11:00,
2013-03-03 09:22:00,23.0,17.0,29.85,West,280,2.0,3.0,77,0.00,,,1.28,,2013-03-03 14:22:00,
2013-03-03 09:32:00,25.0,18.0,29.85,WNW,288,1.0,5.0,73,0.00,,,0.00,,2013-03-03 14:32:00,
2013-03-03 09:42:00,25.0,18.0,29.85,WNW,288,1.0,5.0,73,0.00,,,0.00,,2013-03-03 14:42:00,
2013-03-03 09:52:00,25.0,18.0,29.85,WNW,288,1.0,5.0,73,0.00,,,0.00,,2013-03-03 14:52:00,
2013-03-03 10:02:00,28.0,18.0,29.84,West,274,3.0,6.0,67,0.00,,,0.00,,2013-03-03 15:02:00,
2013-03-03 10:11:00,28.0,18.0,29.84,West,274,3.0,6.0,67,0.00,,,0.00,,2013-03-03 15:11:00,
2013-03-03 10:22:00,28.0,18.0,29.84,West,274,3.0,6.0,67,0.00,,,0.00,,2013-03-03 15:22:00,
2013-03-03 10:32:00,30.0,18.0,29.84,NW,306,3.0,6.0,61,0.00,,,0.00,,2013-03-03 15:32:00,
2013-03-03 10:42:00,30.0,18.0,29.84,NW,306,3.0,6.0,61,0.00,,,0.00,,2013-03-03 15:42:00,
2013-03-03 10:52:00,30.0,18.0,29.84,NW,306,3.0,6.0,61,0.00,,,0.00,,2013-03-03 15:52:00,
2013-03-03 11:02:00,31.0,17.0,29.83,WNW,292,1.0,6.0,56,0.00,,,0.00,,2013-03-03 16:02:00,
2013-03-03 11:12:00,31.0,17.0,29.83,WNW,292,1.0,6.0,56,0.00,,,0.00,,2013-03-03 16:12:00,
2013-03-03 11:22:00,31.0,17.0,29.83,WNW,292,1.0,6.0,56,0.00,,,0.00,,2013-03-03 16:22:00,
2013-03-03 11:32:00,33.0,20.0,29.85,WNW,284,1.0,6.0,59,0.00,,,0.00,,2013-03-03 16:32:00,
2013-03-03 11:42:00,33.0,20.0,29.85,WNW,284,1.0,6.0,59,0.00,,,0.00,,2013-03-03 16:42:00,
2013-03-03 11:52:00,33.0,20.0,29.85,WNW,284,1.0,6.0,59,0.00,,,0.00,,2013-03-03 16:52:00,
2013-03-03 12:01:00,33.0,20.0,29.85,WNW,284,1.0,6.0,59,0.00,,,0.00,,2013-03-03 17:01:00,
2013-03-03 12:11:00,33.0,20.0,29.85,WNW,284,1.0,6.0,59,0.00,,,0.00,,2013-03-03 17:11:00,
2013-03-03 12:32:00,38.0,23.0,29.84,WNW,287,3.0,7.0,54,0.00,,,0.00,,2013-03-03 17:32:00,
2013-03-03 12:42:00,38.0,23.0,29.84,WNW,287,3.0,7.0,54,0.00,,,0.00,,2013-03-03 17:42:00,
2013-03-03 12:52:00,38.0,23.0,29.84,WNW,287,3.0,7.0,54,0.00,,,0.00,,2013-03-03 17:52:00,
2013-03-03 13:02:00,41.0,24.0,29.81,WNW,299,1.0,5.0,50,0.00,,,0.00,,2013-03-03 18:02:00,
2013-03-03 13:11:00,41.0,24.0,29.81,WNW,299,1.0,5.0,50,0.00,,,0.00,,2013-03-03 18:11:00,
2013-03-03 13:22:00,41.0,24.0,29.81,WNW,299,1.0,5.0,50,0.00,,,0.00,,2013-03-03 18:22:00,
2013-03-03 13:32:00,41.0,21.0,29.81,NW,316,1.0,7.0,45,0.00,,,0.00,,2013-03-03 18:32:00,
2013-03-03 13:42:00,41.0,21.0,29.81,NW,316,1.0,7.0,45,0.00,,,0.00,,2013-03-03 18:42:00,
2013-03-03 13:52:00,41.0,21.0,29.81,NW,316,1.0,7.0,45,0.00,,,0.00,,2013-03-03 18:52:00,
2013-03-03 14:02:00,40.0,22.0,29.81,North,360,3.0,6.0,48,0.00,,,0.00,,2013-03-03 19:02:00,
2013-03-03 14:11:00,40.0,22.0,29.81,North,360,3.0,6.0,48,0.00,,,0.00,,2013-03-03 19:11:00,
2013-03-03 14:22:00,40.0,22.0,29.81,North,360,3.0,6.0,48,0.00,,,0.00,,2013-03-03 19:22:00,
2013-03-03 14:32:00,40.0,23.0,29.80,WNW,294,2.0,9.0,51,0.00,,,0.00,,2013-03-03 19:32:00,
2013-03-03 14:42:00,40.0,23.0,29.80,WNW,294,2.0,9.0,51,0.00,,,0.00,,2013-03-03 19:42:00,
2013-03-03 14:52:00,40.0,23.0,29.80,WNW,294,2.0,9.0,51,0.00,,,0.00,,2013-03-03 19:52:00,
2013-03-03 15:01:00,40.0,22.0,29.80,North,350,2.0,7.0,49,0.00,,,0.00,,2013-03-03 20:01:00,
2013-03-03 15:11:00,40.0,22.0,29.80,North,350,2.0,7.0,49,0.00,,,0.00,,2013-03-03 20:11:00,
2013-03-03 15:22:00,40.0,22.0,29.80,North,350,2.0,7.0,49,0.00,,,0.00,,2013-03-03 20:22:00,
2013-03-03 15:32:00,38.0,23.0,29.81,NNW,343,3.0,7.0,54,0.00,,,0.00,,2013-03-03 20:32:00,
2013-03-03 15:42:00,38.0,23.0,29.81,NNW,343,3.0,7.0,54,0.00,,,0.00,,2013-03-03 20:42:00,
2013-03-03 15:53:00,38.0,23.0,29.81,NNW,343,3.0,7.0,54,0.00,,,0.00,,2013-03-03 20:53:00,
2013-03-03 16:02:00,38.0,22.0,29.82,WNW,298,2.0,7.0,53,0.00,,,0.00,,2013-03-03 21:02:00,
2013-03-03 16:11:00,38.0,22.0,29.82,WNW,298,2.0,7.0,53,0.00,,,0.00,,2013-03-03 21:11:00,
2013-03-03 16:22:00,38.0,22.0,29.82,WNW,298,2.0,7.0,53,0.00,,,0.00,,2013-03-03 21:22:00,
2013-03-03 16:32:00,36.0,21.0,29.82,NW,313,2.0,6.0,53,0.00,,,0.00,,2013-03-03 21:32:00,
2013-03-03 16:42:00,36.0,21.0,29.82,NW,313,2.0,6.0,53,0.00,,,0.00,,2013-03-03 21:42:00,
2013-03-03 16:52:00,36.0,21.0,29.82,NW,313,2.0,6.0,53,0.00,,,0.00,,2013-03-03 21:52:00,
2013-03-03 17:02:00,35.0,19.0,29.80,NNW,329,0.0,6.0,51,0.00,,,0.00,,2013-03-03 22:02:00,
2013-03-03 17:11:00,35.0,19.0,29.80,NNW,329,0.0,6.0,51,0.00,,,0.00,,2013-03-03 22:11:00,
2013-03-03 17:22:00,35.0,19.0,29.80,NNW,329,0.0,6.0,51,0.00,,,0.00,,2013-03-03 22:22:00,
2013-03-03 17:32:00,33.0,19.0,29.81,WNW,288,0.0,3.0,57,0.00,,,0.00,,2013-03-03 22:32:00,
2013-03-03 17:42:00,33.0,19.0,29.81,WNW,288,0.0,3.0,57,0.00,,,0.00,,2013-03-03 22:42:00,
2013-03-03 17:52:00,33.0,19.0,29.81,WNW,288,0.0,3.0,57,0.00,,,0.00,,2013-03-03 22:52:00,
2013-03-03 18:11:00,30.0,19.0,29.83,NNW,342,2.0,5.0,62,0.00,,,0.00,,2013-03-03 23:11:00,
2013-03-03 18:22:00,30.0,19.0,29.83,NNW,342,2.0,5.0,62,0.00,,,0.00,,2013-03-03 23:22:00,
2013-03-03 18:32:00,28.0,16.0,29.82,West,281,0.0,6.0,61,0.00,,,0.00,,2013-03-03 23:32:00,
2013-03-03 18:42:00,28.0,16.0,29.82,West,281,0.0,6.0,61,0.00,,,0.00,,2013-03-03 23:42:00,
2013-03-03 18:52:00,28.0,16.0,29.82,West,281,0.0,6.0,61,0.00,,,0.00,,2013-03-03 23:52:00,
2013-03-03 19:02:00,27.0,16.0,29.83,WNW,292,0.0,3.0,63,0.00,,,0.00,,2013-03-04 00:02:00,
2013-03-03 19:11:00,27.0,16.0,29.83,WNW,292,0.0,3.0,63,0.00,,,0.00,,2013-03-04 00:11:00,
2013-03-03 19:22:00,27.0,16.0,29.83,WNW,292,0.0,3.0,63,0.00,,,0.00,,2013-03-04 00:22:00,
2013-03-03 19:32:00,26.0,17.0,29.85,WNW,289,1.0,6.0,67,0.00,,,0.00,,2013-03-04 00:32:00,
2013-03-03 19:42:00,26.0,17.0,29.85,WNW,289,1.0,6.0,67,0.00,,,0.00,,2013-03-04 00:42:00,
2013-03-03 19:52:00,26.0,17.0,29.85,WNW,289,1.0,6.0,67,0.00,,,0.00,,2013-03-04 00:52:00,
2013-03-03 20:01:00,25.0,17.0,29.86,WNW,288,0.0,3.0,70,0.00,,,0.00,,2013-03-04 01:01:00,
2013-03-03 20:12:00,25.0,17.0,29.86,WNW,288,0.0,3.0,70,0.00,,,0.00,,2013-03-04 01:12:00,
2013-03-03 20:22:00,25.0,17.0,29.86,WNW,288,0.0,3.0,70,0.00,,,0.00,,2013-03-04 01:22:00,
2013-03-03 20:32:00,24.0,15.0,29.85,WSW,253,3.0,6.0,69,0.00,,,0.00,,2013-03-04 01:32:00,
2013-03-03 20:42:00,24.0,15.0,29.85,WSW,253,3.0,6.0,69,0.00,,,0.00,,2013-03-04 01:42:00,
2013-03-03 20:52:00,24.0,15.0,29.85,WSW,253,3.0,6.0,69,0.00,,,0.00,,2013-03-04 01:52:00,
2013-03-03 21:01:00,24.0,16.0,29.85,NW,308,1.0,8.0,72,0.00,,,0.00,,2013-03-04 02:01:00,
2013-03-03 21:11:00,24.0,16.0,29.85,NW,308,1.0,8.0,72,0.00,,,0.00,,2013-03-04 02:11:00,
2013-03-03 21:22:00,24.0,16.0,29.85,NW,308,1.0,8.0,72,0.00,,,0.00,,2013-03-04 02:22:00,
2013-03-03 21:32:00,24.0,17.0,29.88,WNW,289,2.0,5.0,73,0.00,,,0.00,,2013-03-04 02:32:00,
2013-03-03 21:42:00,24.0,17.0,29.88,WNW,289,2.0,5.0,73,0.00,,,0.00,,2013-03-04 02:42:00,
2013-03-03 21:53:00,24.0,17.0,29.88,WNW,289,2.0,5.0,73,0.00,,,0.00,,2013-03-04 02:53:00,
2013-03-03 22:02:00,24.0,17.0,29.88,WNW,299,2.0,7.0,73,0.00,,,0.00,,2013-03-04 03:02:00,
2013-03-03 22:11:00,24.0,17.0,29.88,WNW,299,2.0,7.0,73,0.00,,,0.00,,2013-03-04 03:11:00,
2013-03-03 22:22:00,24.0,17.0,29.88,WNW,299,2.0,7.0,73,0.00,,,0.00,,2013-03-04 03:22:00,
2013-03-03 22:32:00,23.0,15.0,29.87,NW,304,4.0,8.0,71,0.00,,,0.00,,2013-03-04 03:32:00,
2013-03-03 22:42:00,23.0,15.0,29.87,NW,304,4.0,8.0,71,0.00,,,0.00,,2013-03-04 03:42:00,
2013-03-03 22:53:00,23.0,15.0,29.87,NW,304,4.0,8.0,71,0.00,,,0.00,,2013-03-04 03:53:00,
2013-03-03 23:01:00,23.0,15.0,29.87,North,360,2.0,5.0,72,0.00,,,0.00,,2013-03-04 04:01:00,
2013-03-03 23:11:00,23.0,15.0,29.87,North,360,2.0,5.0,72,0.00,,,0.00,,2013-03-04 04:11:00,
2013-03-03 23:22:00,23.0,15.0,29.87,North,360,2.0,5.0,72,0.00,,,0.00,,2013-03-04 04:22:00,
2013-03-03 23:32:00,23.0,14.0,29.89,SE,143,1.0,5.0,68,0.00,,,0.00,,2013-03-04 04:32:00,
2013-03-03 23:42:00,23.0,14.0,29.89,SE,143,1.0,5.0,68,0.00,,,0.00,,2013-03-04 04:42:00,
2013-03-03 23:52:00,23.0,14.0,29.89,SE,143,1.0,5.0,68,0.00,,,0.00,,2013-03-04 04:52:00,